GFSNGP_con_lsi_000.txt.gz
Lid_Strength_Index
13 12 13 14 14 14 15 15 17 15 15 13 12 11 11 10 11 11 11 11 11 12 12 12 14 14 14 14 15 15 17 18 19 20 20 20 21 22 22 23 23 23 23 23
16 15 14 16 14 14 14 14 14 14 15 12 11 10 11 11 10 10 10 9 9 11 13 13 14 14 15 15 15 16 18 19 19 20 21 21 23 23 23 23 23 23 24 24
17 14 15 17 15 14 13 12 13 15 12 10 11 11 10 10 9 9 9 9 11 11 12 13 13 14 15 15 15 17 18 19 20 21 22 23 23 23 23 23 23 24 24 24
17 15 21 14 11 11 12 12 11 11 10 10 10 9 9 8 9 9 9 9 9 11 11 12 13 15 15 15 16 18 19 20 21 22 23 23 23 23 23 23 24 24 24 23
18 18 15 13 11 12 12 13 10 10 10 9 8 8 9 7 7 7 7 7 8 10 10 11 14 15 16 17 18 19 20 21 21 21 22 23 23 24 23 23 24 23 24 24
16 19 21 13 9 8 8 15 9 9 9 8 8 12 10 7 7 9 8 9 10 11 11 14 16 16 16 18 19 19 20 20 21 20 22 23 23 23 23 23 24 24 24 24
16 18 16 11 9 9 16 14 8 7 8 8 9 8 7 8 9 10 10 10 11 12 13 14 16 16 17 19 20 19 19 20 21 21 22 22 24 23 23 23 23 24 24 24
15 17 19 9 10 13 10 8 9 10 9 9 9 8 8 9 10 10 11 13 13 14 14 16 17 17 18 20 19 20 21 22 22 23 23 23 24 25 25 24 25 25 24 24
16 15 11 10 12 12 9 12 11 11 10 10 10 9 9 9 9 10 11 12 14 16 17 17 17 17 19 19 20 21 22 24 25 25 25 25 26 26 25 25 24 24 23 23
17 13 14 14 12 11 11 13 12 12 12 11 11 10 10 10 10 10 13 13 18 18 19 20 20 18 19 20 21 23 24 25 26 26 26 26 25 24 24 24 24 23 23 23
17 15 14 12 12 12 12 13 14 13 12 12 12 12 11 10 10 9 11 16 17 17 16 16 19 19 20 21 22 23 24 25 26 26 26 25 24 24 23 22 22 23 23 23
17 13 13 13 13 12 16 16 16 13 14 13 13 13 12 12 11 11 11 12 16 16 16 17 19 19 21 22 23 24 24 26 26 26 25 24 24 24 20 20 18 19 19 21
12 15 14 12 12 13 15 16 17 18 17 17 16 14 13 12 12 11 11 11 11 16 16 16 19 19 22 23 23 23 23 25 25 25 25 25 25 25 24 21 18 19 20 19
12 15 15 14 16 15 15 16 16 17 18 18 18 17 17 16 14 13 12 11 11 14 14 17 18 18 21 23 23 23 22 24 24 24 24 24 24 24 24 25 25 25 21 20
14 14 15 15 15 16 16 16 19 19 19 19 20 21 20 21 20 18 16 14 13 12 14 18 18 20 21 21 22 23 23 24 23 23 23 23 22 23 24 25 26 26 26 21
16 16 15 17 18 18 18 20 21 21 21 21 22 22 21 20 20 19 18 16 15 14 12 16 17 18 21 20 20 21 22 22 22 23 23 24 24 25 25 25 26 26 26 26
19 21 20 20 20 20 21 20 20 21 22 22 23 22 22 21 21 19 18 15 12 9 8 14 16 20 19 19 20 21 22 23 23 24 24 24 25 26 26 26 26 26 26 26
19 19 19 19 21 21 21 21 22 22 23 22 22 22 22 20 19 17 15 14 12 13 15 16 20 20 20 21 20 22 23 25 25 25 25 25 25 26 25 26 26 26 27 24
20 21 21 21 21 22 22 23 23 22 23 22 23 22 21 19 18 17 14 14 17 20 24 21 18 21 21 22 23 23 24 25 26 26 26 26 27 26 26 27 27 27 28 26
23 22 23 23 22 23 24 23 23 24 23 22 22 22 22 21 20 22 24 26 24 25 23 21 22 23 24 22 23 24 25 26 27 27 27 26 27 27 27 27 28 30 30 31
25 24 24 24 23 23 23 23 24 24 23 23 22 22 22 25 26 24 26 27 25 23 23 23 24 24 24 25 24 25 26 27 27 27 26 27 28 28 28 28 29 29 31 30
25 25 25 24 25 25 25 25 24 24 25 24 23 24 25 25 26 26 26 26 25 24 25 25 26 25 25 25 26 26 26 26 26 26 27 27 27 27 28 28 29 30 31 32
25 26 25 25 26 26 26 25 24 25 26 27 27 26 27 26 25 28 29 26 25 26 26 26 25 25 25 26 26 26 26 26 26 26 26 26 27 28 28 29 30 30 32 33
26 25 25 24 25 26 27 26 25 25 26 26 27 26 26 27 27 25 25 26 26 26 26 25 24 23 25 26 26 26 26 26 26 26 27 27 28 28 29 30 30 32 34 35
26 25 25 26 26 27 27 26 26 26 26 26 26 26 25 25 27 26 25 25 23 25 25 24 23 24 25 26 26 26 26 27 27 27 28 28 29 30 31 31 31 36 38 37
25 25 25 25 26 26 27 26 27 27 27 27 27 26 25 24 24 24 25 26 26 26 26 26 26 26 26 26 27 27 27 27 27 27 28 29 29 29 30 30 33 34 36 36
25 24 25 25 25 26 26 27 27 27 26 26 27 25 25 26 26 26 26 26 26 26 26 26 26 26 26 26 26 26 27 27 27 27 28 28 28 29 28 30 31 31 30 29

GFSNGP_con_lsi_003.txt.gz
Lid_Strength_Index
13 13 13 13 14 13 14 13 16 14 14 13 11 11 10 10 10 11 12 12 11 12 12 13 13 14 15 15 16 16 16 17 17 18 18 19 20 20 21 21 21 21 22 22
15 13 13 15 12 12 13 14 13 12 13 10 9 9 10 9 9 10 10 10 10 11 12 12 13 13 14 14 16 15 16 16 17 18 20 20 20 21 21 22 22 22 23 23
18 14 14 17 14 13 12 11 12 14 11 9 10 9 9 9 8 9 9 9 10 11 11 12 13 13 15 15 16 16 16 17 18 19 20 20 20 21 21 22 22 22 22 22
17 15 21 14 10 10 12 10 10 10 9 8 8 7 7 6 7 8 8 8 10 11 11 12 13 14 14 16 16 16 17 17 19 19 20 21 21 21 21 22 22 22 22 21
18 18 15 13 11 11 12 13 9 9 9 8 7 7 8 6 7 7 7 7 7 9 10 11 12 13 15 16 16 16 17 18 19 20 21 22 21 21 21 21 22 21 21 22
15 19 20 12 10 8 9 15 13 12 12 12 11 12 11 8 8 8 9 9 10 10 11 12 13 16 16 16 16 17 17 18 20 20 21 22 21 22 22 22 22 21 22 22
16 18 16 12 11 9 17 17 13 13 13 14 13 12 10 9 10 9 10 11 12 13 13 14 16 16 16 17 17 16 18 19 20 20 21 21 22 22 23 22 21 22 22 22
14 17 18 10 11 16 15 12 13 14 14 14 13 11 11 10 11 10 10 10 11 13 14 15 16 17 17 17 18 19 19 21 21 21 22 23 23 24 23 23 23 23 24 23
16 16 13 11 13 13 11 13 14 14 13 13 13 12 11 11 11 11 10 10 10 12 14 15 17 16 16 18 19 20 21 21 22 23 24 24 24 25 25 24 24 24 23 23
15 13 13 13 11 10 11 12 13 13 14 13 13 13 14 14 13 13 12 12 10 11 11 11 16 16 15 18 19 20 22 22 23 24 25 25 24 25 24 25 23 23 23 23
15 13 12 12 12 13 13 15 16 16 15 16 17 17 17 16 16 14 13 12 11 12 13 12 13 15 15 18 19 20 21 23 24 24 25 25 24 24 24 22 21 22 22 21
15 11 12 12 12 12 16 17 18 18 19 18 18 19 18 18 17 17 17 15 14 13 13 13 12 14 15 18 19 21 22 23 24 25 25 25 25 24 20 20 19 18 18 20
10 11 12 12 11 11 15 15 16 18 19 20 20 20 20 20 20 20 20 19 18 16 14 13 14 15 16 18 20 21 22 24 24 25 25 25 24 23 23 19 17 17 17 18
11 12 11 11 13 13 13 14 16 18 18 18 19 20 20 21 21 22 22 20 20 20 19 17 16 15 15 18 20 21 21 23 24 24 24 24 23 22 21 21 22 21 17 17
12 12 12 12 13 13 14 16 18 19 18 19 19 21 22 23 24 23 22 22 22 22 21 19 17 14 14 19 20 21 22 23 24 24 22 23 22 22 22 20 21 22 21 18
14 15 15 15 16 16 17 18 19 19 19 20 21 21 22 22 23 23 23 22 22 22 20 19 17 15 18 20 19 20 21 22 23 23 23 22 22 22 22 22 22 22 22 23
19 19 20 20 19 19 19 18 18 19 20 21 22 22 22 23 23 23 21 19 18 18 17 16 15 11 16 17 18 18 20 21 22 22 21 21 21 22 22 23 23 22 23 23
19 19 19 20 20 21 21 20 21 21 22 21 22 22 23 24 24 22 21 19 19 18 16 19 18 17 17 17 17 18 19 20 21 22 22 22 22 22 22 22 23 24 24 21
21 21 21 20 20 21 22 23 22 22 22 23 23 24 24 23 23 21 20 24 25 24 23 21 17 18 18 17 19 19 20 22 22 23 23 23 23 24 24 24 24 24 24 24
23 22 23 23 23 23 24 23 23 24 23 24 24 24 24 23 23 25 24 26 26 25 22 22 21 20 20 20 20 22 22 23 24 24 24 24 25 25 26 25 25 25 26 26
25 24 24 24 24 24 24 24 25 25 25 25 25 26 25 24 26 27 27 27 25 23 23 22 22 23 22 22 22 23 24 24 25 26 26 26 27 27 26 26 26 26 27 27
25 25 25 25 26 25 24 23 24 25 25 25 26 26 27 27 27 27 26 26 25 24 24 24 24 23 23 23 24 25 25 26 26 26 27 27 27 26 26 26 27 27 28 29
25 25 26 26 26 25 24 24 24 24 25 26 27 27 26 27 26 27 28 26 25 25 25 25 24 24 24 26 26 26 27 27 27 27 26 26 26 26 26 26 27 28 29 29
26 26 26 25 24 25 26 26 25 25 25 26 26 25 25 27 27 26 25 25 25 24 25 25 24 23 26 27 27 27 27 27 26 26 26 25 26 26 26 27 28 28 29 30
27 26 24 24 25 26 26 25 25 26 26 26 25 25 25 24 26 27 27 26 25 26 25 23 22 24 26 26 26 26 26 26 26 26 26 26 26 27 27 28 28 29 29 30
26 25 24 24 25 25 25 25 26 26 26 26 26 26 26 26 26 26 26 26 26 26 26 26 26 26 26 26 26 26 26 26 26 26 26 27 27 28 28 28 29 29 30 32
25 24 24 24 24 24 25 25 27 26 26 26 27 26 26 26 26 26 26 26 26 26 26 26 26 26 26 26 26 26 26 25 25 26 26 27 27 27 28 28 29 29 29 29

GFSNGP_con_lsi_006.txt.gz
Lid_Strength_Index
13 12 12 12 12 12 13 13 15 13 12 11 10 10 10 8 8 10 11 10 9 10 10 10 12 12 13 13 14 14 15 16 16 16 16 16 18 18 18 18 19 19 20 21
15 13 13 14 12 12 12 12 12 12 12 8 7 7 7 8 7 7 8 8 9 10 11 12 12 11 13 13 14 15 15 16 16 17 17 17 18 18 19 19 20 20 20 21
17 14 14 17 14 13 12 11 12 15 11 10 10 10 8 8 11 11 10 11 12 11 11 11 11 12 13 13 14 16 15 16 17 17 18 19 18 19 19 20 20 21 21 21
16 15 21 13 10 10 12 11 10 11 13 13 13 12 10 10 10 11 11 11 11 10 10 10 10 11 13 15 16 16 16 17 17 18 19 19 19 19 19 20 21 21 21 21
17 17 14 12 12 13 14 13 14 14 15 14 14 14 11 11 12 11 11 10 10 10 10 11 12 12 13 17 17 17 17 17 17 18 19 20 20 19 19 20 21 21 20 21
15 19 20 16 14 13 12 16 15 14 14 14 14 19 17 13 12 11 10 10 10 10 10 11 11 14 16 17 18 17 16 16 18 18 18 19 19 19 20 20 20 21 22 21
17 18 15 13 11 11 17 19 14 14 15 15 17 15 14 12 12 11 12 12 11 11 11 11 12 14 14 17 18 18 18 20 20 19 19 19 19 19 20 20 21 21 22 22
18 22 20 12 13 17 14 12 12 13 13 14 14 14 13 12 13 14 14 13 12 13 12 11 11 14 14 15 17 20 19 21 21 20 20 20 21 21 21 21 22 23 24 24
17 17 12 11 11 11 9 13 13 13 13 14 14 13 14 15 15 16 15 15 13 13 12 12 10 13 15 13 19 21 20 19 20 22 21 21 21 22 23 22 22 24 24 23
17 14 12 11 10 9 9 11 12 12 14 14 15 15 15 16 17 17 16 16 15 15 15 14 12 12 13 13 17 19 19 20 21 21 22 21 21 22 22 22 22 23 23 23
14 12 10 10 10 10 10 11 12 12 13 14 15 15 16 17 18 17 18 18 16 18 18 18 16 14 12 12 17 18 19 20 21 21 22 22 21 22 21 21 20 22 21 21
15 10 9 10 9 9 11 12 12 13 14 13 14 15 16 17 17 17 18 18 19 20 20 19 19 18 17 14 17 17 19 21 21 22 22 22 22 22 18 19 18 17 17 19
9 7 8 8 8 9 12 12 12 13 14 15 15 15 15 17 18 19 20 21 21 21 22 22 22 22 21 18 15 17 18 19 21 22 23 23 23 24 24 19 17 16 17 17
8 10 11 9 11 11 11 12 13 14 15 15 15 16 17 19 19 20 21 22 22 22 23 24 24 24 22 20 18 17 17 17 20 21 22 23 23 23 22 22 21 20 17 17
11 11 12 12 13 13 14 14 16 16 16 16 16 17 18 20 21 21 21 22 23 24 24 24 25 24 21 20 18 16 18 18 20 21 21 22 22 22 22 21 21 21 20 18
15 15 15 17 17 16 16 17 18 18 18 18 19 19 20 20 21 22 22 22 24 24 23 23 22 21 20 19 18 15 15 16 19 20 21 21 21 21 20 20 20 21 20 19
20 20 21 20 19 19 19 18 18 19 20 21 22 21 22 22 23 24 24 23 22 22 21 21 21 19 18 17 16 14 15 17 19 19 20 20 20 19 19 19 20 19 20 20
20 20 20 20 21 21 20 20 20 21 23 22 22 22 23 24 25 25 24 23 22 21 22 22 21 20 18 17 14 15 16 18 18 18 18 19 18 18 19 19 20 22 21 17
22 22 21 20 20 21 22 23 23 23 23 23 25 25 25 24 25 24 23 23 24 24 24 22 19 19 19 17 17 18 18 19 19 19 19 18 19 20 20 21 22 22 21 19
22 21 22 23 23 24 24 23 24 25 24 25 25 26 27 25 25 25 24 26 25 24 23 23 22 22 21 20 19 20 20 20 20 20 20 20 20 22 22 22 22 22 23 25
25 25 25 25 25 24 25 25 25 25 23 24 25 26 27 26 26 26 27 27 25 24 24 23 23 23 22 21 21 21 22 22 22 22 23 23 23 24 24 24 24 25 26 27
26 26 26 26 26 26 25 24 23 23 24 24 25 26 27 27 27 27 26 27 25 24 24 24 23 23 23 22 23 24 24 24 24 24 25 25 25 26 26 26 26 27 27 26
26 26 26 26 27 26 24 23 23 24 24 25 26 26 26 26 27 28 29 26 25 24 24 24 23 23 23 24 25 25 26 26 26 26 26 26 26 26 27 27 26 26 26 26
26 26 27 27 26 24 25 24 24 24 24 24 25 25 26 27 27 27 26 25 25 25 24 24 23 23 25 26 26 26 26 26 26 26 26 26 26 26 26 26 26 26 26 26
28 28 27 25 25 25 25 24 25 24 25 25 26 26 26 25 27 27 26 26 24 25 25 23 22 23 25 25 25 25 25 25 25 25 25 25 25 26 26 26 26 26 26 26
27 25 24 24 24 24 24 24 26 25 25 26 25 25 25 25 25 25 25 25 25 26 26 26 26 26 26 26 26 26 26 26 26 26 25 25 25 26 26 26 26 26 27 28
25 24 24 24 23 23 24 24 25 26 24 25 26 25 25 25 25 25 25 25 26 26 26 26 25 25 26 26 26 26 26 26 25 26 26 26 26 26 27 27 28 28 28 28

GFSNGP_con_lsi_009.txt.gz
Lid_Strength_Index
13 12 13 14 14 13 14 12 15 13 13 10 9 9 10 9 11 12 12 13 13 13 12 11 12 11 11 11 13 15 15 15 15 15 15 16 16 17 18 18 17 18 19 19
14 13 12 14 13 13 13 13 14 14 14 11 14 14 13 14 14 14 14 13 13 13 13 13 11 12 12 12 12 15 15 15 14 15 16 16 16 17 18 18 18 18 19 19
17 14 14 16 14 12 12 11 13 16 17 15 16 16 15 15 15 14 13 12 12 12 12 12 12 11 12 13 13 13 14 14 15 17 16 17 17 18 18 18 18 19 19 19
17 16 22 15 11 11 12 15 14 15 15 16 16 16 14 13 15 14 13 12 11 11 12 12 11 11 11 12 13 14 14 14 16 16 16 17 18 19 19 18 19 19 19 19
22 23 16 14 14 15 16 16 13 14 14 14 13 14 15 14 14 14 13 12 13 12 12 11 11 11 12 13 13 14 16 16 17 17 17 19 19 18 18 19 19 19 18 19
24 22 23 15 14 11 12 16 12 13 13 14 14 18 17 13 12 12 12 13 13 12 12 12 12 11 12 12 13 14 16 15 17 18 19 18 18 19 18 18 18 18 19 19
27 26 21 16 14 12 22 19 13 12 13 13 14 13 12 12 12 12 13 13 13 14 14 13 12 12 13 12 13 14 17 19 20 20 20 20 18 19 19 19 19 20 20 20
28 29 25 13 14 17 15 12 11 11 11 12 12 12 12 12 14 15 15 15 15 15 15 15 15 14 14 14 12 13 17 19 20 21 20 20 20 21 19 19 20 21 21 22
19 20 12 11 12 10 10 11 11 11 11 11 13 13 12 14 14 14 15 15 15 16 17 16 15 16 17 16 15 13 13 16 18 18 20 19 19 20 20 20 21 22 22 22
18 13 13 11 10 10 10 10 10 10 11 12 13 12 13 13 14 14 15 16 16 17 18 18 17 16 17 16 15 17 15 15 17 19 19 20 20 21 20 21 21 21 22 21
15 13 11 11 9 9 9 9 10 10 11 12 12 13 12 13 14 15 15 15 16 18 19 19 18 18 18 18 18 19 18 16 17 18 19 20 20 20 20 19 19 20 20 20
15 11 9 10 9 8 9 10 11 12 12 11 11 12 12 13 13 13 15 15 17 19 20 20 20 20 20 20 21 21 21 19 16 17 19 20 20 21 17 17 17 16 16 18
10 8 8 8 7 9 11 11 11 11 12 13 13 13 14 14 14 15 16 17 18 19 20 21 22 22 21 21 21 22 22 20 17 17 18 20 21 21 22 19 16 16 15 15
7 9 10 9 10 12 11 12 13 14 14 14 14 15 15 16 16 17 18 18 19 20 21 21 22 23 22 22 21 21 21 20 19 16 18 19 20 21 21 21 20 20 15 16
13 12 13 13 13 14 14 14 16 16 15 16 15 16 17 18 19 20 19 20 21 22 23 23 23 23 21 21 21 21 20 19 18 16 17 18 19 21 21 21 20 19 18 16
16 16 16 17 17 16 17 17 18 17 17 17 18 19 19 20 21 22 22 22 25 25 24 24 24 22 21 20 20 20 19 19 18 17 18 19 20 21 21 21 21 20 19 19
20 19 21 21 19 19 19 18 18 18 19 20 21 21 22 23 24 25 25 24 24 24 24 23 23 21 20 21 21 20 20 18 16 14 18 18 19 20 20 19 19 20 19 17
20 20 20 20 21 20 20 20 21 21 22 22 23 24 25 26 27 26 26 25 25 24 23 23 23 22 21 20 19 18 17 16 15 17 17 17 17 17 17 17 17 17 17 15
22 22 21 20 20 21 23 23 23 23 23 24 25 25 24 24 25 25 25 26 26 26 25 23 20 20 21 20 17 17 17 18 18 18 18 18 17 17 17 17 17 17 16 16
23 22 23 23 23 24 25 24 25 25 25 25 23 23 24 25 26 27 27 27 27 26 24 24 23 22 21 20 19 20 20 20 20 19 19 19 19 19 18 19 18 17 20 21
26 25 25 25 25 25 25 26 26 26 24 22 24 24 25 26 26 27 28 28 26 24 24 23 23 23 22 21 21 22 21 21 21 21 21 21 21 21 21 20 20 23 24 25
27 27 27 26 27 26 26 26 25 24 23 23 23 24 25 26 26 27 27 28 26 24 24 24 23 23 23 22 23 23 23 23 23 23 23 23 22 22 23 23 24 24 25 26
28 28 27 27 27 27 26 26 24 23 24 24 24 25 26 26 26 28 29 26 25 25 25 24 22 23 24 24 25 25 25 25 25 25 25 25 25 25 25 26 26 26 26 26
30 29 28 28 28 28 26 24 24 24 23 23 24 25 26 27 26 25 25 25 25 25 25 23 22 22 25 25 25 26 26 26 26 26 25 26 26 26 26 26 26 26 26 26
30 31 32 28 26 25 24 24 24 24 24 24 24 24 25 25 26 25 25 25 24 25 25 24 22 23 25 25 25 25 25 25 25 25 25 25 25 25 25 25 25 26 26 26
30 26 25 24 24 24 24 24 25 24 24 25 24 24 24 24 24 24 25 25 25 25 25 25 25 25 25 26 26 26 26 26 26 26 26 26 26 26 26 26 26 26 26 26
25 24 25 25 24 24 23 23 24 25 24 25 25 24 24 24 24 24 24 25 25 25 26 26 25 25 26 26 26 26 26 26 26 26 26 26 26 26 26 26 26 26 26 26

GFSNGP_con_lsi_012.txt.gz
Lid_Strength_Index
13 13 13 13 14 13 14 13 16 14 14 13 14 15 13 14 14 15 15 14 13 12 12 13 13 13 13 13 13 13 14 14 14 15 15 15 15 15 16 17 17 17 18 18
15 13 14 14 13 13 14 14 13 13 15 15 14 13 13 13 15 15 15 14 12 12 13 13 12 13 14 13 13 13 14 14 14 14 16 16 16 16 17 17 17 17 18 18
17 14 15 17 15 13 12 11 13 17 17 15 15 14 14 13 14 15 15 13 12 13 14 13 13 12 13 13 12 13 13 13 14 14 15 16 17 17 17 17 17 18 18 18
16 17 21 15 12 13 14 13 14 15 16 15 14 13 12 11 13 13 13 13 13 14 14 13 14 14 13 13 13 13 14 14 14 15 16 16 18 17 17 18 18 18 18 18
21 25 18 15 15 16 16 16 14 14 12 12 13 13 14 12 12 12 11 11 13 15 14 14 14 15 14 15 14 14 13 14 14 14 15 15 15 16 17 18 18 17 17 17
23 22 28 17 16 14 13 19 16 15 14 14 13 18 16 12 11 11 11 12 13 13 14 15 15 14 16 17 16 16 15 14 15 16 17 17 16 17 15 16 17 17 17 17
23 25 23 17 14 13 23 21 17 15 13 13 14 13 12 11 12 11 11 12 13 13 14 13 13 14 15 16 17 16 16 17 15 14 16 16 17 19 18 17 17 18 19 18
29 28 26 13 14 18 15 12 13 13 12 11 11 11 11 12 12 12 13 13 12 13 14 13 13 14 15 16 16 16 16 15 16 15 15 16 18 19 20 18 18 20 22 22
20 20 13 11 12 10 10 12 12 11 10 10 11 11 12 13 12 13 13 12 13 15 15 14 15 15 17 16 18 18 18 18 18 17 16 17 17 18 18 19 20 20 21 21
15 13 12 11 10 10 10 10 10 10 10 11 11 11 12 11 12 12 13 13 13 15 15 16 16 16 17 17 18 20 21 21 20 20 18 15 17 16 18 19 20 20 21 21
15 13 11 11 10 9 9 9 9 10 10 11 11 11 11 12 12 13 13 13 14 14 15 16 16 17 18 18 19 21 21 22 22 21 20 17 16 16 17 16 17 19 19 19
15 11 11 10 9 8 9 9 10 11 11 11 11 11 11 13 12 13 13 13 14 15 15 16 17 18 19 19 20 22 23 22 22 21 20 19 17 17 14 14 15 15 14 16
10 8 8 8 8 11 11 12 11 12 12 13 13 13 13 14 14 14 14 15 16 17 17 18 19 20 20 21 21 22 24 24 23 22 21 20 18 18 18 17 14 14 13 13
8 9 9 9 11 12 12 13 13 14 14 14 14 14 15 16 16 17 18 18 18 19 20 21 22 23 22 22 22 23 23 22 22 21 21 20 19 17 17 17 20 18 14 13
13 13 13 14 13 14 14 15 17 16 16 16 16 17 17 18 19 19 20 21 22 23 23 24 24 24 22 22 23 23 22 22 21 20 20 19 18 17 16 17 18 18 18 15
16 16 16 17 17 16 17 18 19 18 18 18 19 19 19 20 21 22 23 24 25 26 25 25 26 24 24 23 23 22 22 21 21 21 20 19 18 16 16 17 18 17 18 17
19 19 21 21 20 19 19 19 18 18 19 20 21 22 22 23 25 25 25 24 24 25 25 25 25 23 23 22 22 22 22 22 21 20 19 17 16 16 16 17 17 17 17 16
21 21 20 21 21 21 20 20 21 21 23 22 23 23 25 26 25 24 25 26 26 26 26 25 24 23 22 22 21 21 20 20 19 18 17 16 15 16 16 17 16 16 16 15
23 22 21 20 21 22 22 23 23 23 23 24 25 25 25 23 23 25 26 27 28 28 26 24 22 22 23 22 20 19 19 19 18 18 17 17 17 17 17 16 16 15 15 15
24 23 23 23 23 24 25 24 25 25 25 26 25 24 24 23 24 25 26 28 27 27 26 25 23 23 23 22 20 21 20 20 20 19 19 20 19 19 18 18 17 18 20 21
27 26 26 26 25 25 26 26 27 27 26 25 24 24 23 23 24 25 26 28 26 26 25 25 24 23 23 23 22 22 22 22 22 21 21 21 21 20 20 22 21 22 22 23
29 29 27 27 28 28 28 28 28 27 26 24 23 23 24 25 25 25 25 26 25 24 24 25 24 23 23 23 24 24 24 23 23 23 23 22 22 23 23 23 23 23 23 23
31 31 29 29 29 29 28 29 28 26 24 24 23 23 24 25 25 26 27 25 24 24 25 24 22 22 23 25 25 25 25 25 25 24 24 25 24 25 25 25 25 25 25 25
35 33 32 31 32 33 32 27 26 24 23 23 23 23 24 25 25 24 24 24 24 24 24 23 22 21 24 25 25 25 25 25 25 25 25 25 25 25 26 26 26 26 26 26
32 33 36 32 30 28 26 24 24 24 23 23 23 23 23 23 25 24 24 24 23 24 25 24 22 23 25 26 26 26 26 25 25 25 26 25 26 26 26 25 26 26 25 25
34 30 28 27 25 24 23 23 24 24 23 24 23 23 23 23 23 23 24 24 24 24 25 25 25 25 26 25 26 26 26 26 26 26 26 25 25 26 26 26 26 26 26 26
28 24 25 25 25 25 24 23 24 24 23 24 24 23 23 23 24 24 24 24 25 25 25 25 25 26 26 26 26 26 26 26 26 27 27 27 27 26 27 27 27 26 26 26

GFSNGP_con_lsi_015.txt.gz
Lid_Strength_Index
13 12 13 13 14 14 15 15 17 15 14 12 14 15 14 13 13 14 14 13 13 11 12 13 13 12 13 13 12 12 14 14 14 14 14 14 14 14 14 15 15 15 16 16
16 12 12 14 13 13 13 13 13 13 14 14 13 13 14 14 13 14 14 13 13 12 12 13 13 13 13 14 14 14 13 13 14 14 14 14 14 14 14 15 15 15 16 16
16 14 15 19 16 14 13 12 13 15 15 15 15 13 13 13 12 12 13 13 13 12 13 13 13 13 15 15 15 15 14 13 14 14 14 15 14 15 15 15 15 15 16 16
16 20 21 15 14 13 14 14 15 15 15 13 13 12 12 11 11 13 13 13 12 11 12 13 12 13 14 14 16 16 15 15 15 15 16 15 15 15 15 15 15 15 15 15
19 19 17 15 15 16 16 17 15 16 15 13 12 13 14 12 12 12 12 11 10 11 12 12 12 13 13 14 15 15 16 16 16 17 17 15 16 16 15 15 15 15 14 15
21 22 29 18 16 15 13 21 16 17 17 16 13 17 15 13 11 11 11 10 10 12 12 12 12 12 13 14 15 15 15 16 17 18 17 17 17 16 16 15 16 15 15 15
17 19 20 16 14 13 23 20 16 16 14 14 14 12 11 11 11 11 11 11 11 12 12 12 12 13 14 14 15 14 15 16 17 18 19 18 17 15 16 16 16 16 16 16
30 27 23 13 14 17 14 12 12 13 12 12 12 11 10 10 10 11 12 11 11 12 12 12 12 14 15 15 14 15 16 17 18 18 19 18 18 18 15 16 18 17 17 17
19 20 13 12 12 10 10 11 11 12 11 11 11 11 10 11 12 12 12 11 11 13 13 13 13 14 15 15 15 17 18 19 19 19 19 19 19 18 16 14 16 17 17 18
15 13 13 11 10 9 10 10 10 10 10 11 11 10 10 11 11 11 11 12 12 14 14 14 13 13 14 15 16 18 20 20 20 20 20 20 19 18 17 15 15 16 16 17
15 12 11 11 10 9 9 9 10 10 10 10 11 11 11 12 12 12 12 12 13 14 14 14 14 14 15 16 17 19 20 20 21 21 21 21 20 19 17 15 14 16 15 16
15 11 11 11 9 9 10 10 12 12 12 11 11 12 12 13 13 13 14 14 15 15 16 16 17 18 18 18 19 21 22 21 21 21 21 21 21 20 16 15 13 12 12 13
11 9 9 9 10 12 12 12 13 13 13 14 13 14 14 15 15 15 16 17 18 18 19 20 21 21 21 21 21 22 23 23 22 22 22 22 21 21 21 17 14 12 11 11
8 9 10 9 11 13 13 13 14 15 15 15 15 16 16 17 17 18 19 19 20 21 23 23 24 24 23 23 24 24 24 24 24 23 23 22 21 21 20 19 18 16 13 12
13 13 13 14 14 14 15 16 17 17 17 17 17 18 19 20 20 21 21 22 23 24 24 24 25 25 24 24 24 25 25 24 24 23 22 22 21 21 20 19 18 16 14 13
16 16 16 16 17 17 18 19 19 18 18 18 19 20 20 21 22 23 23 24 24 25 26 26 26 25 24 24 24 24 23 23 22 22 22 22 21 21 20 19 18 16 15 15
17 19 21 22 20 19 20 19 19 19 20 20 21 22 23 24 25 25 24 22 23 25 26 26 26 25 24 23 23 23 22 22 22 22 22 21 21 20 19 18 16 15 15 13
20 20 20 21 21 21 20 20 20 21 22 22 23 23 25 26 26 25 22 22 24 25 26 26 25 25 23 22 23 22 22 21 21 20 19 19 19 18 17 15 15 15 14 14
23 23 22 21 22 22 23 23 23 22 23 24 25 26 26 26 24 22 22 24 25 26 25 25 23 24 24 23 21 22 22 21 20 19 18 17 17 16 16 16 16 15 14 14
24 24 24 24 24 25 25 24 25 25 26 28 29 28 26 25 22 23 23 25 24 24 24 25 25 25 23 23 22 22 23 22 22 21 19 19 19 19 18 18 19 20 20 20
28 27 26 26 26 26 27 26 27 28 27 29 29 27 25 23 22 23 25 25 23 23 23 23 24 23 23 24 23 24 24 23 23 23 22 21 22 22 22 22 22 22 22 23
31 31 29 28 29 29 29 30 30 30 30 29 26 24 24 23 24 25 25 26 24 23 23 24 23 22 23 23 24 24 24 24 25 24 24 24 24 24 24 23 23 23 23 23
33 33 30 30 31 30 31 31 31 31 29 26 25 24 23 23 24 25 26 24 24 23 24 24 22 22 23 25 25 25 25 25 25 25 25 25 25 25 25 25 24 24 24 24
37 36 35 34 37 37 34 29 30 27 25 24 23 22 23 24 24 23 23 23 24 23 25 23 22 20 24 25 26 26 26 25 25 25 25 25 26 25 25 25 25 25 25 25
37 36 38 36 33 30 31 28 25 23 23 23 23 22 22 22 24 23 23 24 22 24 25 24 22 23 26 26 26 26 26 26 26 26 25 25 25 25 25 25 25 25 25 25
36 33 32 32 28 25 24 23 24 23 23 24 23 23 23 23 23 23 23 23 24 24 26 26 26 26 27 27 27 27 27 27 27 27 27 27 27 27 27 27 27 26 26 26
33 27 27 26 24 24 24 24 24 24 23 23 24 23 23 23 23 24 24 25 25 25 26 26 26 26 27 27 28 27 27 27 27 27 28 28 27 27 27 27 27 26 26 26

GFSNGP_con_lsi_021.txt.gz
Lid_Strength_Index
11 10 10 12 12 11 13 12 16 13 13 10 8 8 10 10 11 11 12 13 12 12 12 11 11 11 12 11 11 11 11 12 12 12 11 12 12 13 12 12 13 12 12 12
14 11 11 12 11 11 11 11 11 11 11 7 8 9 10 11 11 12 12 11 11 11 11 11 10 10 11 10 10 10 11 12 11 12 12 12 12 13 12 12 13 12 13 13
16 13 13 16 14 12 11 10 10 12 10 11 11 10 10 10 10 10 10 9 9 10 10 9 9 9 10 10 9 10 11 11 12 12 12 13 13 14 14 13 13 13 12 12
16 15 21 14 10 10 12 11 10 10 11 11 11 10 9 9 9 9 9 9 8 8 8 8 8 8 9 9 10 10 11 11 12 12 12 13 14 14 14 14 14 14 13 12
17 18 15 14 11 12 12 13 9 9 10 10 9 9 10 7 7 8 8 8 7 6 7 7 8 8 9 10 10 10 11 11 11 11 12 13 15 15 14 14 15 15 14 14
15 19 20 14 10 10 9 15 9 9 10 10 10 13 11 7 7 7 7 6 6 6 6 7 7 8 9 10 10 11 11 11 11 11 12 13 13 14 14 14 14 14 15 14
16 16 14 10 10 9 15 13 8 8 9 9 11 9 7 6 7 6 6 6 5 6 7 8 8 9 11 11 12 11 11 12 12 12 13 13 13 14 14 15 15 16 16 15
15 17 19 9 10 13 9 8 8 8 8 8 8 8 7 7 7 7 7 7 7 8 9 9 10 11 13 13 12 13 14 15 15 16 15 15 16 16 17 17 18 18 17 16
13 13 8 8 8 7 6 7 7 7 7 7 8 8 7 8 7 7 8 9 9 11 12 12 12 12 14 14 15 16 18 19 19 18 18 18 18 18 18 18 18 19 18 18
12 10 9 8 7 6 6 7 6 6 6 7 8 8 8 8 8 9 9 11 11 13 14 14 14 14 15 16 17 19 21 21 20 21 20 20 19 19 20 20 20 19 19 19
10 9 8 8 7 7 6 6 6 6 7 7 8 9 9 10 11 11 11 12 12 14 15 15 15 16 17 17 19 21 21 21 22 21 22 22 21 22 21 20 20 21 20 19
12 8 8 8 6 6 7 7 7 7 9 10 11 11 11 12 12 12 13 13 15 15 16 17 18 18 18 19 20 22 23 23 23 23 23 23 23 22 19 18 17 16 16 16
8 6 6 6 6 5 6 6 8 10 10 11 12 13 13 13 13 14 15 16 16 17 17 18 19 20 20 20 21 23 24 24 24 23 23 23 23 23 24 21 18 17 16 16
6 6 8 7 7 6 8 10 11 12 13 13 14 15 15 16 16 16 16 16 17 18 20 20 21 21 20 20 22 23 24 23 23 22 22 22 22 22 21 22 23 21 18 17
6 6 7 8 9 12 12 13 14 14 14 15 15 16 17 17 18 17 17 18 19 20 21 21 21 21 19 20 22 24 24 23 22 22 21 20 20 20 20 20 20 20 19 18
8 12 12 12 11 13 14 15 15 15 15 16 17 17 18 18 19 20 20 20 22 21 22 21 20 20 19 21 23 23 23 23 22 22 21 20 19 20 20 20 19 19 19 18
13 14 15 15 14 15 16 16 16 16 17 18 19 19 20 21 22 22 22 21 21 21 21 20 20 19 20 20 22 22 22 22 22 22 21 21 20 19 19 18 18 18 17 16
16 16 17 17 16 17 17 17 18 18 19 19 20 21 22 24 23 23 22 21 21 21 20 19 20 20 20 21 21 21 21 22 22 22 21 21 20 19 19 19 19 18 16 15
19 19 19 19 19 20 20 20 20 20 20 21 22 23 22 22 22 22 22 22 22 21 20 20 19 20 22 21 20 21 21 22 22 21 21 21 21 20 20 20 20 20 19 19
22 21 22 22 22 22 22 21 22 22 22 23 25 26 25 24 24 23 22 22 21 20 20 21 21 22 21 21 21 22 22 22 22 22 22 21 21 21 21 22 22 21 21 21
23 23 23 23 23 23 23 23 24 24 23 24 25 25 25 24 23 23 22 21 19 20 21 21 21 21 21 22 22 22 23 23 23 23 23 23 22 22 21 22 22 22 22 22
24 25 24 24 24 24 24 24 24 25 25 25 25 26 26 25 23 21 20 21 20 20 21 21 21 21 22 23 22 22 23 23 23 23 23 23 23 23 22 22 22 22 22 22
25 25 25 26 26 25 27 27 26 25 26 25 25 24 23 20 19 20 21 19 20 20 21 21 21 21 22 22 23 23 23 23 24 23 23 23 23 23 23 22 22 21 22 22
27 27 27 26 29 28 27 22 24 22 25 24 24 23 21 20 19 18 19 20 20 21 21 21 21 19 23 23 23 24 24 24 24 24 24 23 23 23 23 23 23 22 22 23
28 28 29 29 25 22 24 22 22 21 21 20 19 19 19 18 20 20 20 20 20 21 22 21 20 21 23 23 24 24 24 24 25 25 25 25 25 24 24 23 23 23 23 23
25 23 24 25 24 23 22 21 21 20 20 21 20 19 19 19 20 20 20 21 22 22 23 23 23 24 24 24 24 25 25 25 25 25 25 25 25 24 24 23 23 23 23 23
24 24 22 22 22 22 22 22 22 22 21 21 21 20 21 21 21 21 22 22 23 23 24 24 24 25 26 26 25 25 25 25 26 27 26 26 26 25 24 24 23 23 23 23

GFSNGP_con_lsi_024.txt.gz
Lid_Strength_Index
12 11 11 13 13 13 13 12 15 13 12 10 8 9 11 11 11 10 10 11 12 12 13 12 12 12 12 12 12 13 13 14 14 14 13 14 14 15 15 15 14 14 14 14
18 13 12 14 14 13 13 12 12 12 12 8 11 11 11 11 11 11 12 11 11 11 11 11 11 11 10 12 12 12 13 14 13 13 13 14 14 14 14 14 14 14 14 14
22 15 16 21 16 14 14 12 13 15 13 14 13 12 13 13 11 11 11 10 10 9 10 10 10 9 10 10 11 13 14 13 13 13 13 13 13 14 14 15 15 15 15 14
22 21 27 16 13 13 14 13 14 14 16 14 13 13 12 11 11 10 10 10 9 9 8 8 8 9 9 10 11 11 12 12 12 12 13 13 13 14 14 14 15 15 15 15
23 24 18 15 14 14 16 16 13 14 12 12 12 13 13 9 9 10 10 8 8 8 8 8 9 9 10 11 11 11 11 11 12 12 13 12 13 13 13 13 14 15 15 15
24 25 28 18 14 12 13 19 14 14 15 13 12 16 14 9 9 9 8 8 8 8 8 9 10 10 11 12 13 13 12 12 12 13 14 14 14 14 13 14 14 14 14 14
19 21 20 15 14 12 21 17 13 13 12 12 13 12 10 9 9 8 9 9 9 10 10 10 11 12 13 13 14 14 14 15 16 16 17 17 17 17 17 17 17 17 17 17
24 25 22 13 13 15 12 9 9 9 10 10 10 9 9 9 10 9 10 10 10 11 11 11 12 14 15 15 15 16 17 18 19 20 20 19 20 20 20 20 20 20 20 19
18 18 11 10 10 8 8 10 9 9 9 9 10 10 10 10 10 10 11 11 11 14 14 13 15 15 17 16 16 18 20 21 21 21 21 21 22 22 22 22 22 22 21 21
15 13 11 9 8 8 7 8 8 8 9 9 10 9 9 9 10 10 12 13 14 16 17 17 16 15 18 17 18 20 22 22 21 22 22 22 22 22 23 23 24 23 23 23
13 10 9 8 8 7 7 7 8 8 8 9 9 9 9 11 12 12 13 14 16 17 17 17 16 17 19 18 20 21 21 21 22 22 23 23 22 22 21 20 20 21 21 20
13 9 9 8 8 8 8 8 8 9 9 10 10 10 11 12 13 14 15 16 16 17 17 18 18 19 19 21 22 22 22 22 23 24 24 23 23 23 18 16 15 15 14 16
9 7 7 7 7 7 8 8 8 9 10 11 12 12 13 14 14 16 17 17 18 18 19 19 20 20 20 21 22 21 23 23 23 24 24 24 23 23 24 20 15 15 15 14
6 6 8 8 8 8 9 10 12 13 13 13 14 16 16 17 17 18 18 18 19 20 22 23 22 22 21 22 21 21 21 22 23 24 24 24 23 23 22 22 22 21 17 15
7 7 8 10 11 12 12 13 16 15 15 16 16 17 17 19 19 18 18 20 21 24 23 23 24 22 21 19 20 21 22 22 22 23 23 23 22 22 21 21 21 20 19 17
11 13 14 14 13 14 15 16 16 15 16 17 18 18 18 19 20 21 22 24 26 24 24 25 22 20 20 20 21 21 22 22 21 22 22 23 23 22 22 21 20 19 19 18
15 16 19 18 15 16 17 16 16 17 17 18 19 20 22 24 24 25 24 28 27 25 23 23 21 20 21 21 23 22 21 22 22 22 23 22 21 21 22 21 21 21 20 19
16 17 17 18 17 18 18 18 19 20 20 20 20 22 23 26 25 25 26 28 28 26 24 22 23 21 21 23 22 21 23 23 23 23 23 22 22 21 21 21 22 22 21 20
20 19 19 18 20 20 21 22 22 21 22 23 24 24 24 24 25 28 30 30 29 26 23 25 18 21 22 23 20 23 23 24 24 24 23 23 23 22 22 22 22 22 22 22
22 23 23 23 24 25 25 25 25 26 27 27 29 31 30 28 29 30 31 28 25 21 26 25 23 23 24 25 22 24 25 24 24 24 24 24 24 23 22 22 22 22 22 22
25 25 25 25 25 26 27 27 28 28 27 26 27 30 29 30 31 31 31 26 24 25 25 21 23 22 23 24 24 28 27 26 26 25 25 25 24 24 23 23 22 22 22 22
27 27 26 27 28 29 30 30 31 30 30 30 30 31 32 30 29 28 26 23 24 20 21 21 22 23 23 23 27 28 28 28 29 27 26 25 25 25 24 24 24 23 23 22
31 30 28 29 30 31 34 33 32 32 31 30 29 29 28 26 24 22 25 22 22 20 19 21 21 20 21 25 27 29 29 29 29 28 27 26 25 25 25 24 24 23 23 23
33 33 33 33 35 35 34 31 32 30 29 28 29 28 26 25 22 20 19 19 18 19 20 21 20 18 22 27 28 29 29 30 30 32 30 27 29 27 26 25 25 24 23 23
34 35 35 35 34 31 32 30 31 28 28 27 24 22 22 20 21 22 21 20 18 20 21 21 20 21 26 28 29 30 30 30 31 32 31 31 31 29 27 26 25 24 24 23
33 33 32 33 32 30 29 29 29 28 26 23 21 21 21 20 19 20 20 19 21 21 22 23 25 26 27 28 30 30 29 29 29 30 30 31 31 29 28 27 26 25 25 24
34 30 31 30 30 30 30 29 28 25 23 23 22 21 21 21 21 20 21 22 22 23 23 26 26 26 28 30 30 30 30 30 29 30 34 33 32 33 30 29 29 28 27 27

GFSNGP_con_lsi_027.txt.gz
Lid_Strength_Index
13 13 14 14 14 14 14 13 16 14 13 12 10 11 12 12 10 10 11 12 12 13 13 12 12 12 12 12 12 12 12 13 13 13 13 13 13 13 13 14 14 14 15 15
19 14 14 15 15 14 14 14 14 13 14 10 13 13 13 12 12 12 13 12 12 12 12 12 11 11 11 11 11 11 11 12 11 11 11 11 11 11 12 12 13 13 14 15
24 16 17 22 17 15 14 13 15 17 14 16 14 13 14 14 14 13 12 12 12 11 11 11 11 10 10 10 10 12 13 12 12 11 11 11 11 11 12 12 13 14 14 14
25 24 26 17 15 15 15 14 16 16 17 16 14 14 13 13 13 13 11 11 11 10 10 9 9 9 10 10 11 11 12 13 12 12 12 12 12 13 13 13 13 13 13 14
23 26 20 16 15 16 17 17 15 16 14 13 14 15 15 12 12 11 11 10 10 9 9 9 10 10 11 11 11 11 12 12 13 14 15 15 16 15 15 15 15 15 14 14
28 25 27 18 15 13 14 20 17 18 16 16 14 18 17 11 10 9 9 9 9 9 9 10 11 11 12 13 14 14 13 14 14 15 17 18 18 18 18 18 18 17 17 17
18 21 22 16 14 13 23 19 17 16 15 14 15 13 11 10 9 9 9 9 10 10 11 11 12 13 14 14 15 15 15 16 17 17 19 20 20 20 20 21 20 21 21 20
27 28 23 14 15 17 14 12 12 12 12 11 11 10 10 9 10 9 10 10 10 11 12 12 13 14 15 16 15 17 18 19 19 21 20 20 22 22 22 22 23 23 22 22
19 20 14 13 12 11 10 12 11 11 10 10 10 10 10 10 10 10 10 10 12 14 14 14 16 16 18 17 17 18 22 22 22 21 21 21 22 22 23 23 23 23 22 22
18 15 13 12 11 9 9 9 8 8 9 9 10 9 9 9 9 10 12 13 15 16 18 18 18 16 19 19 18 25 26 22 21 21 21 21 21 22 23 23 24 23 23 22
16 13 11 11 10 9 8 8 8 8 8 9 9 9 9 9 11 12 13 14 16 17 18 18 18 19 21 19 22 23 22 21 20 21 22 22 22 23 23 22 21 21 20 18
15 11 10 9 8 8 8 8 8 9 9 9 9 9 10 12 12 13 15 15 16 17 19 20 22 21 21 23 25 24 21 20 21 21 22 21 23 23 19 18 17 15 14 15
10 8 8 7 7 8 8 8 8 9 9 9 11 12 12 14 14 15 16 16 17 18 19 21 23 22 23 24 26 25 22 21 21 21 22 22 23 23 25 21 17 16 15 14
8 8 9 8 9 8 8 8 11 12 13 12 14 16 16 16 17 17 18 18 19 20 22 24 24 24 22 25 26 24 23 21 22 22 22 22 22 22 22 23 24 22 18 16
7 7 7 7 10 11 12 13 15 14 15 16 17 17 18 18 19 18 18 20 21 23 24 24 26 24 23 24 24 23 22 22 22 22 22 22 22 22 22 22 22 22 21 19
9 13 13 11 11 13 15 16 15 16 16 17 19 18 18 19 20 21 20 21 26 24 23 26 24 23 23 26 25 22 22 22 21 22 23 23 23 22 22 22 22 22 22 22
14 15 18 17 14 15 15 16 16 16 17 18 20 21 23 25 26 24 23 26 25 25 25 26 24 24 26 26 26 22 22 23 23 23 24 24 23 23 23 23 22 23 22 21
15 16 17 17 16 17 18 19 19 19 21 21 22 23 25 27 27 27 28 30 29 28 26 25 25 26 27 27 25 22 25 25 25 26 24 24 24 24 23 23 23 23 22 21
20 19 18 18 19 19 20 21 22 23 23 24 26 26 27 28 29 29 31 32 31 31 25 29 20 24 27 26 20 24 26 26 26 27 25 25 25 25 24 23 23 22 22 22
23 23 23 23 24 24 25 25 26 27 29 29 31 32 32 30 32 31 32 29 27 24 28 28 28 28 27 25 21 25 29 28 29 28 27 26 27 26 25 24 24 23 23 23
26 25 25 26 26 27 27 28 29 29 29 31 31 31 31 30 33 34 35 31 26 27 26 24 27 26 24 21 22 25 32 31 31 31 31 28 28 28 26 26 25 24 24 23
29 28 27 27 27 30 33 33 33 32 32 33 33 34 36 32 33 33 30 27 25 23 22 23 22 21 20 20 23 26 30 31 32 32 32 31 31 29 28 27 27 25 25 24
31 30 29 30 31 32 36 35 35 34 33 33 31 31 31 27 27 27 26 26 23 20 20 21 20 18 18 22 24 28 29 30 31 32 32 33 32 32 30 29 27 26 26 25
36 35 34 36 38 35 29 32 35 35 33 31 30 29 28 27 29 24 21 20 19 19 21 21 19 17 21 23 26 28 29 31 32 34 33 30 33 32 32 31 29 27 26 25
33 35 37 35 33 32 34 33 33 32 31 32 31 27 26 22 23 22 22 21 18 20 20 19 18 19 23 26 28 28 28 31 34 36 35 36 35 35 34 32 31 30 28 27
31 28 32 34 33 33 32 32 31 32 31 31 29 26 26 22 20 20 20 20 20 20 20 21 22 23 24 26 27 28 28 30 30 32 33 35 36 34 34 33 32 31 30 30
31 31 33 32 33 33 33 32 32 32 31 30 29 26 22 21 21 21 21 21 21 21 22 23 24 24 25 27 27 28 29 30 29 31 34 35 35 35 34 33 33 32 30 29

GFSNGP_con_lsi_030.txt.gz
Lid_Strength_Index
15 14 13 14 14 14 15 15 17 15 15 13 12 12 12 12 11 9 11 12 13 13 13 13 13 13 13 13 12 13 13 13 13 13 13 13 13 14 13 14 13 14 14 15
19 14 14 16 15 15 14 14 14 13 14 10 11 13 13 13 12 11 11 12 12 12 13 13 12 12 12 12 12 12 12 13 12 12 12 12 12 12 12 12 13 13 14 14
22 18 19 23 19 16 15 15 15 17 14 16 14 13 13 13 13 13 13 13 13 13 13 12 12 12 12 11 11 13 13 14 13 13 13 12 13 13 13 14 14 14 14 14
24 25 29 18 16 16 16 15 16 16 17 15 14 13 14 14 14 13 13 12 12 13 12 11 11 11 11 11 12 12 13 15 14 13 15 15 15 16 16 16 16 16 16 16
22 26 21 17 16 17 17 18 16 16 16 13 14 15 16 13 13 13 13 12 12 11 11 11 11 11 11 12 12 13 13 13 14 16 17 17 18 18 17 18 18 18 17 18
27 28 27 18 17 14 14 21 18 17 16 16 15 19 17 14 12 12 11 11 11 10 10 11 11 11 13 13 14 15 14 15 16 16 20 19 19 19 19 19 19 19 19 19
19 26 23 17 14 13 22 19 18 16 15 16 16 14 13 12 12 11 10 10 9 10 10 11 12 13 14 15 16 16 16 17 18 18 19 20 20 20 21 21 20 22 21 21
22 22 24 14 14 17 14 13 13 14 13 13 13 12 12 11 11 10 10 10 10 11 12 12 14 15 16 16 16 18 19 20 20 22 21 20 22 21 22 22 23 23 23 22
19 19 14 13 12 11 12 13 12 13 12 12 12 12 11 11 10 10 10 9 10 12 13 14 16 16 17 17 18 19 23 25 25 23 21 20 22 22 22 22 23 23 23 23
18 15 14 12 11 11 11 11 10 10 10 11 11 10 10 9 9 10 11 12 15 16 17 17 16 16 18 19 20 26 29 25 22 22 21 22 20 20 22 23 23 23 23 23
17 14 13 13 12 11 10 10 9 9 9 9 10 9 9 9 10 11 12 14 15 16 17 17 17 18 20 20 24 25 25 22 21 21 23 21 20 21 20 19 19 20 19 19
16 11 12 12 11 10 10 9 9 9 9 9 9 9 9 10 11 12 14 16 17 18 18 18 19 19 21 22 25 27 23 21 21 20 20 20 21 21 17 16 15 14 14 15
10 8 9 9 9 9 9 9 9 9 9 9 9 10 11 12 14 15 16 17 18 18 18 19 20 20 22 25 27 28 26 22 21 20 21 21 22 22 23 20 15 15 15 15
8 8 9 8 9 8 8 8 10 12 12 11 12 16 15 15 17 17 18 18 19 21 20 23 23 23 23 25 28 29 27 22 22 21 22 22 22 22 22 23 23 21 18 16
8 7 7 7 10 10 11 13 14 13 15 16 17 17 17 18 18 18 19 21 22 24 22 23 23 23 25 27 26 28 25 23 24 22 21 22 22 22 23 22 23 23 21 19
9 12 12 11 9 12 14 16 15 14 15 16 17 18 18 19 20 22 23 25 25 26 25 26 25 24 26 28 27 28 27 23 21 24 22 24 23 24 23 23 23 23 23 22
12 12 18 17 14 15 15 16 15 15 16 18 20 21 22 24 26 26 27 30 29 28 25 26 25 26 27 28 28 27 27 25 23 25 25 26 25 25 24 24 24 24 23 21
12 15 16 15 15 15 17 18 19 20 22 21 22 23 24 26 26 28 29 33 33 30 27 26 25 25 27 28 28 28 28 28 28 26 25 26 27 25 25 25 25 24 23 22
19 18 18 18 18 18 20 22 23 23 23 24 24 25 26 27 30 31 35 34 33 32 25 29 21 23 25 25 24 26 28 28 26 25 27 27 28 30 29 27 26 26 25 24
23 22 23 24 24 25 25 26 26 27 30 29 32 32 32 33 35 35 36 33 29 25 29 30 30 29 29 28 22 28 28 27 24 25 29 30 30 30 29 28 28 28 28 27
25 25 25 25 27 27 28 29 29 29 31 33 32 32 32 31 36 37 36 33 27 30 29 26 27 26 28 26 25 28 27 25 25 26 33 32 32 32 31 32 31 30 28 28
29 28 27 27 28 32 35 35 33 33 33 34 35 33 33 31 34 36 32 28 25 26 27 24 23 24 23 19 23 24 23 25 26 29 30 32 34 34 33 32 32 29 28 28
29 29 29 30 30 32 37 37 36 35 33 32 32 34 31 28 28 29 28 29 26 25 22 21 21 19 18 21 22 23 24 25 26 27 29 32 33 35 34 33 32 31 30 29
30 30 31 33 38 35 31 32 36 35 36 35 34 32 30 29 29 29 25 23 21 19 21 21 19 16 21 22 22 23 24 26 27 29 30 30 36 36 35 34 33 32 31 30
29 33 33 33 32 32 34 35 35 35 34 34 33 28 29 26 26 27 25 23 19 19 20 19 17 18 23 23 23 24 25 27 29 31 32 36 37 37 37 36 35 34 33 32
31 29 32 32 32 32 33 33 32 33 34 32 32 30 28 28 27 25 23 20 21 20 21 21 21 22 21 22 24 25 26 27 27 29 31 33 35 35 34 33 33 33 33 33
31 30 32 32 34 35 35 34 33 32 33 34 31 28 29 29 26 21 21 21 21 21 21 21 22 22 22 24 25 25 26 27 27 29 32 34 34 34 33 33 33 33 32 31

GFSNGP_con_lsi_033.txt.gz
Lid_Strength_Index
17 16 16 16 16 16 17 16 16 15 15 14 12 12 12 12 13 12 12 14 13 12 12 13 13 13 14 14 13 13 14 13 14 13 13 14 14 14 14 14 14 14 14 15
20 15 15 16 15 16 15 15 15 15 15 12 13 13 14 13 12 11 10 12 12 12 12 12 12 13 13 13 13 13 13 14 13 14 14 14 14 14 14 14 14 14 14 15
18 19 19 21 19 16 15 15 15 17 14 16 15 13 13 13 13 12 11 11 12 12 12 13 13 12 13 13 13 15 15 16 15 14 14 14 15 15 15 16 15 16 16 16
22 22 24 18 19 18 17 15 17 17 18 16 14 14 13 12 13 13 13 13 13 13 13 13 13 13 13 13 14 14 15 15 15 15 16 16 16 17 17 17 17 17 17 17
20 26 21 18 18 19 19 18 16 15 14 14 14 15 16 14 14 14 14 13 13 12 13 13 13 12 13 13 13 13 13 14 15 16 18 18 20 19 18 18 19 19 18 19
25 25 26 19 19 17 16 21 18 16 16 15 15 19 15 14 13 13 12 12 12 12 12 12 13 12 13 14 14 15 14 15 16 17 21 21 19 20 19 20 19 19 19 20
22 20 22 19 16 15 22 19 18 16 15 16 16 14 13 13 13 12 12 12 12 12 11 11 12 13 14 14 15 15 16 17 18 18 21 21 21 20 21 21 20 22 21 21
23 23 24 15 15 17 14 14 14 14 14 14 13 12 13 12 12 12 12 12 11 11 11 12 13 14 15 16 15 17 18 19 21 23 22 21 26 23 24 23 23 23 23 22
19 19 14 13 13 11 12 13 13 13 12 12 12 12 12 13 13 12 11 10 10 11 12 13 15 15 16 17 17 18 21 23 27 24 22 22 25 23 23 24 24 23 22 22
18 16 15 13 11 11 11 12 11 11 11 12 12 12 11 12 11 11 11 11 13 14 14 16 17 16 18 18 19 25 23 24 23 24 24 24 21 20 22 23 22 21 22 21
18 14 13 12 12 11 11 11 11 11 11 11 12 11 10 10 11 10 10 13 14 13 14 16 17 18 20 20 21 22 23 22 22 23 24 23 21 21 20 19 18 18 17 17
18 12 12 12 11 11 11 11 10 10 11 11 10 10 9 10 9 10 12 14 15 16 17 18 19 20 22 24 23 24 22 21 22 22 22 21 21 21 16 14 13 13 12 14
12 10 10 10 10 10 11 10 9 10 10 9 9 9 10 10 13 14 15 16 16 17 19 20 21 21 22 22 25 26 25 23 23 21 22 22 22 22 23 19 15 15 14 14
9 9 10 9 9 9 9 9 10 12 12 11 11 15 14 15 17 17 17 17 18 19 21 23 24 23 21 26 27 25 24 23 25 23 23 24 23 22 23 23 24 22 18 16
10 9 8 8 11 10 11 13 13 12 13 16 17 17 16 17 16 17 19 20 20 23 25 25 26 22 23 26 24 24 25 24 24 24 24 22 23 22 23 23 24 23 22 20
9 11 11 11 10 11 13 16 14 13 16 18 18 18 18 18 19 21 23 24 24 25 24 23 22 21 26 27 26 27 27 23 23 25 26 26 24 24 24 24 25 24 24 24
14 15 19 16 13 13 14 15 14 16 17 17 19 21 22 24 26 28 30 31 28 27 24 24 23 25 29 27 26 25 27 27 23 23 25 29 27 26 24 26 26 26 25 23
10 10 13 13 13 14 17 18 18 19 22 21 22 24 25 27 26 28 29 32 30 29 27 26 26 28 29 29 28 26 25 25 28 30 28 27 28 25 25 27 27 27 25 24
16 15 17 17 18 17 19 22 23 23 23 24 25 26 28 30 30 33 37 36 34 33 26 31 23 23 29 27 26 25 25 28 30 30 29 27 28 26 27 30 29 29 28 26
22 22 22 23 24 24 25 25 26 27 31 29 30 31 32 34 36 36 38 34 30 26 30 28 31 30 28 27 21 28 29 29 28 29 29 28 26 26 28 28 29 29 32 31
24 24 25 25 27 27 28 28 28 29 33 31 30 33 33 36 38 39 36 33 27 31 31 28 30 27 26 26 26 31 33 30 29 28 29 26 26 27 28 33 32 31 31 32
28 27 27 27 28 32 35 32 30 30 31 34 36 36 36 34 36 36 32 29 27 26 28 27 25 24 23 21 23 25 26 27 27 27 26 26 27 29 30 32 32 32 32 32
28 28 26 27 28 30 33 34 35 32 31 34 34 34 32 29 30 31 28 29 30 27 25 24 21 19 18 19 23 24 24 24 24 23 24 25 27 30 31 32 32 33 33 32
29 29 28 31 30 28 30 33 36 36 36 36 36 35 32 31 31 30 26 25 25 23 24 23 19 16 18 22 23 24 24 24 23 23 25 25 30 31 33 33 33 33 34 33
28 28 29 28 27 28 30 35 33 34 35 35 35 33 32 28 28 28 26 25 23 22 24 19 17 17 21 22 23 23 24 24 24 25 27 29 30 32 33 35 35 35 34 33
27 28 29 30 28 28 30 32 31 35 35 33 34 34 33 31 28 25 27 25 25 22 22 21 20 21 21 21 22 23 23 23 24 25 27 28 29 30 32 32 33 32 32 33
28 27 27 28 30 32 34 33 32 32 35 37 33 31 31 30 27 25 25 24 23 21 21 22 21 21 21 22 22 22 23 24 24 26 27 28 30 31 31 32 33 33 32 32

GFSNGP_con_lsi_036.txt.gz
Lid_Strength_Index
18 17 17 17 17 17 18 16 17 15 16 15 13 12 12 12 13 14 13 13 14 14 14 14 14 14 14 14 14 14 14 14 14 14 14 15 15 16 16 16 16 16 16 16
20 17 17 18 17 17 16 17 17 17 17 14 13 13 14 13 14 14 13 13 13 13 12 12 12 13 13 14 13 13 14 14 14 15 15 16 17 16 16 16 16 16 15 16
19 20 19 19 18 17 17 16 15 17 14 16 16 15 14 15 15 14 12 11 11 13 12 12 12 11 13 13 13 15 15 17 17 17 17 17 17 16 16 17 16 17 17 16
23 20 22 18 20 18 15 15 16 18 19 16 16 16 15 14 14 14 13 12 11 12 13 12 12 12 13 13 14 15 16 17 17 17 18 17 17 17 17 17 17 18 18 18
22 22 19 19 20 20 19 19 17 16 15 16 16 17 17 15 14 14 13 12 12 12 13 13 13 13 13 14 14 15 16 16 16 17 18 18 20 19 18 19 19 19 17 19
23 22 23 20 20 18 17 21 18 15 16 18 17 21 18 15 14 13 13 13 12 12 13 13 13 13 14 15 16 16 15 14 16 17 20 21 19 20 20 21 19 18 19 19
22 21 21 19 18 17 22 19 20 18 17 17 17 16 14 13 14 13 13 12 12 13 12 12 13 14 14 15 15 15 15 16 17 18 20 21 21 21 23 23 20 22 21 20
21 22 22 17 17 18 16 16 16 16 15 15 14 14 14 13 13 13 13 12 11 12 13 12 14 14 14 14 15 17 17 18 19 21 21 19 26 24 25 25 25 24 23 22
19 19 17 15 15 14 13 14 14 14 14 13 14 14 13 13 13 13 13 12 12 12 13 13 15 13 14 15 17 18 20 21 22 21 20 20 25 23 23 25 25 23 21 21
19 18 16 14 13 12 12 12 12 12 13 13 14 13 12 12 13 13 12 12 14 15 15 14 16 15 16 17 18 21 24 21 21 23 21 21 20 20 24 24 23 22 21 21
19 16 14 13 12 11 11 11 12 12 12 12 13 12 12 12 12 12 12 14 15 13 13 13 16 17 19 19 20 22 23 21 20 20 21 21 20 21 20 20 19 21 18 16
18 13 13 12 11 10 12 12 12 12 13 13 12 12 12 12 12 12 12 15 15 15 15 17 17 19 21 20 21 22 21 20 20 20 20 20 21 21 16 13 12 11 11 12
13 11 11 11 11 11 12 12 12 12 11 12 12 12 13 12 14 14 16 16 15 17 18 19 20 20 22 22 24 24 22 20 20 20 20 21 21 22 23 19 14 13 13 13
11 11 13 12 11 11 10 10 12 13 13 13 13 16 16 16 18 18 18 19 19 19 19 20 19 20 21 22 24 24 23 21 22 21 22 22 23 23 23 23 24 22 17 15
11 10 9 10 11 11 12 14 15 14 15 17 18 17 18 18 18 18 19 19 19 20 20 22 24 23 23 25 24 23 22 22 22 22 22 22 22 22 23 23 23 24 22 19
12 12 12 12 10 12 14 17 15 14 16 18 19 19 19 19 20 23 24 25 24 25 26 26 25 23 25 25 23 23 23 21 22 24 23 23 23 24 23 24 25 25 25 23
15 15 19 17 13 13 14 14 13 15 17 18 19 21 23 24 26 28 31 32 31 30 29 28 25 25 28 27 26 24 25 25 23 26 26 27 27 26 25 26 26 26 25 22
9 10 13 13 13 14 16 17 18 19 21 21 22 23 25 26 26 30 33 35 33 31 29 28 28 29 31 31 29 26 27 27 29 28 27 27 27 26 26 26 26 25 23 24
16 13 17 17 19 19 19 21 23 23 23 23 24 26 27 29 30 34 38 35 34 34 28 33 23 28 30 28 27 26 25 25 26 29 29 28 28 29 28 28 26 25 25 26
23 22 22 23 24 25 25 25 26 27 29 27 29 29 31 35 38 37 39 33 32 29 32 31 33 32 30 28 22 25 27 27 27 28 30 29 28 28 27 25 24 25 29 30
25 25 25 25 27 27 27 27 26 28 30 30 28 29 30 37 39 39 35 32 30 34 34 30 34 29 29 27 26 27 30 31 31 29 31 28 28 26 25 25 25 27 29 32
30 29 28 28 28 31 31 29 29 29 30 32 33 34 32 33 36 35 33 30 30 28 31 30 28 27 26 22 22 24 25 26 27 26 27 27 27 25 24 24 26 28 30 31
29 27 28 28 29 32 32 32 30 29 30 32 29 30 30 28 29 29 29 32 33 30 27 26 24 21 19 19 20 22 23 23 23 23 24 24 24 24 24 25 27 30 31 31
32 31 32 31 31 29 29 31 29 30 30 30 31 33 30 29 31 33 30 28 27 26 25 25 22 16 19 24 22 22 22 22 22 22 23 23 23 24 26 28 30 30 31 32
33 33 31 28 26 26 27 28 27 28 30 32 34 32 32 30 30 31 32 28 25 24 25 23 17 18 25 23 22 21 21 22 22 23 23 24 24 25 28 30 31 31 32 32
29 27 27 26 26 27 27 26 26 28 31 32 33 35 35 35 32 30 30 27 26 24 27 26 26 25 22 21 21 21 21 22 22 22 22 23 25 27 28 29 29 30 31 32
28 27 27 26 26 27 28 28 28 31 35 37 33 33 33 33 32 28 26 26 26 26 27 28 24 22 22 22 22 22 22 22 22 23 24 25 26 28 28 28 29 30 31 31

GFSNGP_con_lsi_042.txt.gz
Lid_Strength_Index
13 13 14 14 14 15 15 14 15 13 14 13 12 12 12 11 11 12 12 11 11 11 11 11 11 12 12 13 13 13 13 13 12 12 11 11 12 13 13 13 14 14 14 14
15 14 15 16 14 14 14 13 13 13 13 10 11 11 12 12 12 12 11 11 11 10 10 11 12 12 12 12 13 12 12 12 11 10 11 12 13 13 14 14 14 15 15 15
17 14 17 19 16 15 14 13 13 15 12 13 13 12 11 11 11 11 11 11 11 10 10 11 11 11 12 12 12 12 12 11 11 11 12 12 13 14 14 14 14 15 14 14
18 18 21 16 16 13 14 14 14 15 14 13 12 12 11 10 11 11 11 11 11 10 10 10 11 11 11 11 11 12 11 11 11 11 12 13 14 15 14 14 14 14 14 14
19 19 16 19 19 16 16 15 14 14 14 15 16 14 14 13 12 11 11 11 10 10 10 11 11 10 11 12 11 11 11 11 11 12 13 14 15 14 14 14 14 14 14 14
20 19 20 15 17 17 14 17 15 13 14 16 16 15 12 14 13 14 13 12 12 12 12 11 11 11 11 11 11 11 10 11 11 12 13 14 14 14 13 14 14 14 14 14
18 18 17 14 17 17 18 15 15 13 14 16 15 13 13 14 14 13 13 13 13 13 13 12 12 12 12 11 12 10 10 11 12 13 14 14 14 14 15 15 15 15 16 15
18 18 19 17 18 17 14 16 15 15 15 15 15 15 15 15 15 15 14 14 13 13 13 12 12 12 11 12 10 11 12 13 14 15 15 15 16 16 16 16 16 16 16 15
15 15 17 16 15 14 14 13 15 15 15 14 15 15 15 15 15 14 14 14 13 12 13 12 12 11 11 10 12 14 14 15 15 16 16 16 16 16 15 15 15 14 14 14
15 17 17 16 15 14 15 14 14 14 14 14 14 14 15 14 14 14 13 12 12 13 13 12 12 12 10 13 14 15 15 16 16 17 16 17 15 15 15 14 14 14 14 14
18 17 16 15 14 14 14 14 15 14 14 13 14 14 14 13 13 12 11 12 13 13 12 11 11 11 12 14 15 14 15 16 15 15 16 15 15 14 14 13 13 14 14 14
17 15 14 14 12 13 13 13 13 13 14 14 13 13 12 12 12 12 12 12 13 13 12 11 13 13 15 16 15 15 15 15 14 14 15 14 14 14 12 11 11 10 9 10
14 12 13 12 12 12 12 12 12 12 12 12 12 12 12 12 12 12 12 12 13 12 13 14 15 15 17 17 16 16 13 14 14 15 14 14 14 14 14 13 12 11 10 10
11 12 13 13 12 12 12 11 12 13 12 12 12 13 13 13 14 13 13 14 15 16 17 17 18 18 18 18 17 17 16 16 14 14 14 14 15 15 15 15 15 15 14 13
11 11 10 11 11 11 12 13 14 13 13 14 14 13 14 14 14 14 18 19 19 20 20 20 20 21 20 20 19 18 17 16 16 15 15 16 16 16 16 16 17 17 17 15
11 12 13 12 12 13 13 15 13 12 13 13 14 15 14 15 18 21 22 21 17 17 22 22 21 22 22 21 20 19 19 20 19 17 17 17 17 17 17 17 17 17 17 16
14 14 16 14 13 13 13 11 11 10 12 13 13 17 19 22 23 25 26 25 23 23 23 22 23 25 24 23 21 18 19 19 20 19 18 18 18 18 18 18 18 18 17 16
12 11 11 10 10 11 12 12 12 13 15 15 18 20 22 22 20 25 27 27 26 26 25 26 26 26 26 25 23 21 21 20 20 21 20 19 19 19 19 19 19 19 18 17
19 17 15 15 17 15 16 17 18 19 20 20 20 21 22 23 24 27 28 25 24 23 25 26 22 24 23 25 23 22 21 21 21 21 21 22 21 21 21 20 20 19 19 19
22 21 21 22 23 22 23 23 23 24 24 24 25 26 27 28 28 29 26 24 24 23 26 26 26 24 25 25 24 21 21 21 21 21 21 21 21 21 20 21 22 20 20 20
26 25 25 25 26 26 26 25 25 26 26 25 24 26 28 30 29 27 24 22 24 26 25 25 24 22 22 22 22 21 22 21 21 21 21 21 21 21 21 21 21 21 20 20
28 27 27 27 28 29 29 27 27 27 26 27 27 28 28 28 28 26 27 22 23 25 23 22 21 22 21 22 20 20 20 21 21 21 21 21 21 21 21 20 20 20 19 19
29 28 27 28 28 29 29 28 27 26 27 26 26 24 23 22 22 21 22 23 22 23 22 21 21 20 18 18 19 20 20 20 20 20 20 20 20 20 20 20 20 19 19 20
30 30 29 29 29 26 27 28 27 27 27 26 26 24 22 22 23 22 22 23 24 23 21 21 20 17 19 20 20 20 20 20 20 20 20 21 20 20 20 20 20 20 20 21
29 29 29 28 27 27 27 27 26 25 24 24 24 24 23 23 21 22 23 22 22 21 21 21 19 18 20 21 21 21 20 20 20 20 20 20 20 20 20 20 21 21 22 22
27 27 27 27 25 24 24 23 24 23 23 23 24 23 23 24 23 22 22 22 22 22 21 21 21 21 20 20 20 21 21 20 20 20 20 20 20 21 21 21 21 21 22 23
25 25 25 25 25 24 24 23 23 24 24 23 22 22 22 22 23 23 23 22 21 21 21 21 20 20 20 20 21 21 21 21 21 21 20 21 21 21 21 21 22 22 23 24

GFSNGP_con_lsi_045.txt.gz
Lid_Strength_Index
12 11 11 13 14 14 15 14 15 13 13 11 12 12 11 11 11 11 12 12 12 12 11 12 12 13 13 13 13 12 13 13 12 12 12 12 12 13 14 14 14 14 14 14
15 12 12 14 13 13 14 14 13 12 12 8 9 10 11 11 11 12 12 11 11 11 11 11 11 12 12 13 13 12 13 13 12 12 12 13 13 14 14 14 14 14 14 14
17 13 14 18 15 13 13 12 12 14 12 11 11 12 11 12 11 12 11 11 11 11 11 11 11 11 12 12 12 13 13 13 13 12 13 14 14 14 14 14 14 14 14 14
17 16 21 14 11 12 12 12 11 12 13 12 12 11 11 9 11 11 11 11 10 10 10 10 10 11 11 12 13 13 13 13 13 13 13 13 13 13 13 13 14 14 14 14
18 18 14 14 17 14 13 13 10 12 13 14 14 13 12 11 10 10 10 10 10 10 10 10 11 11 12 13 13 13 13 13 13 13 13 13 13 14 13 13 14 14 14 14
17 19 20 16 14 13 11 16 12 12 13 15 14 14 12 13 13 12 11 11 12 11 11 12 12 12 13 14 14 14 13 12 12 12 12 13 13 13 13 13 13 14 14 13
16 17 15 14 16 14 16 15 14 12 13 15 14 12 13 13 13 13 13 13 13 13 13 12 13 13 13 13 13 12 12 12 12 11 12 12 12 13 14 15 14 15 14 14
16 17 18 15 17 15 13 15 13 11 12 13 13 15 14 13 14 14 15 14 14 14 14 14 13 13 13 13 11 12 12 12 13 13 12 13 14 15 15 15 16 16 15 14
14 15 17 15 15 14 13 12 14 13 12 12 14 15 15 15 15 15 15 15 14 14 14 14 13 13 13 12 12 13 13 14 14 14 14 15 16 15 16 16 15 14 13 13
15 16 16 15 13 14 14 14 13 13 13 13 15 15 15 15 15 15 15 14 14 14 14 14 14 13 12 13 14 14 14 15 15 16 15 16 15 14 14 14 14 13 12 12
18 17 16 14 14 13 13 14 14 14 13 13 14 15 15 15 14 14 14 14 14 14 13 13 12 12 12 14 15 14 13 14 14 15 15 15 15 13 13 12 11 12 11 11
16 15 13 14 12 11 13 14 14 14 15 14 13 14 14 14 13 13 13 13 14 14 14 13 13 14 14 15 14 13 14 14 13 14 14 14 13 14 11 10 10 9 9 11
13 12 12 11 10 11 13 13 13 13 13 13 13 13 13 13 13 13 13 13 13 14 14 14 15 15 17 17 17 16 13 13 13 14 13 13 13 13 13 11 9 9 8 8
12 13 14 13 13 12 12 12 12 14 13 13 13 14 13 13 14 14 14 14 14 15 17 17 18 20 19 18 17 18 15 17 13 14 13 13 13 13 13 14 14 13 11 11
12 12 12 12 13 13 13 13 14 14 13 14 14 13 14 14 14 14 17 18 18 19 20 20 21 22 21 20 19 18 16 15 15 15 15 15 15 14 15 15 15 15 15 14
11 12 13 12 12 12 13 14 13 12 13 14 15 15 15 15 17 20 20 20 17 17 22 22 22 23 22 21 20 19 19 20 19 16 16 16 16 16 16 16 17 16 16 16
13 13 14 14 13 13 13 12 12 12 13 14 14 15 18 20 22 23 25 23 23 23 22 22 25 26 25 23 20 18 18 18 21 19 18 17 17 17 17 18 18 17 17 16
18 16 14 13 11 11 12 12 13 14 15 16 17 18 20 21 19 24 26 25 25 26 25 26 26 26 26 24 22 20 20 20 20 20 20 19 19 18 19 19 19 19 18 17
20 19 18 18 18 17 16 17 19 19 19 19 19 20 21 22 23 25 25 24 24 23 25 25 19 23 23 23 21 20 20 20 20 20 20 21 21 20 20 20 20 19 19 19
22 22 21 22 23 23 21 22 21 23 23 23 23 24 25 27 26 26 23 23 25 24 24 24 23 23 23 23 21 20 20 20 20 20 20 20 20 20 20 20 20 21 21 20
25 24 24 24 25 26 25 24 24 24 24 23 23 25 27 27 26 25 23 22 25 24 24 24 22 21 20 21 21 20 20 20 20 20 20 20 20 20 20 20 20 20 21 20
26 26 26 26 26 27 27 26 25 25 25 26 27 27 27 26 26 25 26 21 22 24 22 21 20 21 20 20 19 19 19 20 20 20 20 20 20 20 20 20 20 20 19 19
28 27 27 28 28 27 27 26 26 25 25 25 25 23 21 21 20 21 22 23 21 22 20 20 20 19 18 18 18 19 19 20 19 19 19 19 19 19 20 20 20 20 20 19
27 27 27 27 25 25 26 26 25 26 26 25 26 25 22 22 22 21 21 22 22 21 20 20 20 17 18 19 19 19 20 20 19 19 19 20 20 20 20 20 20 20 20 20
27 27 26 25 24 25 25 25 25 24 24 24 24 23 23 22 21 21 21 21 22 21 20 20 18 18 20 20 20 20 20 19 19 20 20 21 20 20 20 20 20 20 20 21
24 24 24 25 23 23 22 21 23 22 22 23 23 22 22 22 22 21 21 21 21 21 20 19 20 20 20 20 20 20 19 19 19 20 20 20 21 20 20 20 21 21 21 21
23 23 23 23 23 23 22 22 22 23 22 22 22 22 22 21 21 21 21 20 20 20 20 20 19 19 19 19 19 19 19 19 19 20 20 21 20 20 20 20 20 21 21 21

GFSNGP_con_lsi_048.txt.gz
Lid_Strength_Index
13 12 13 15 15 15 15 15 16 15 14 12 12 14 13 12 13 13 14 14 14 14 15 15 16 16 16 16 16 16 16 16 16 16 16 16 16 17 17 17 17 17 17 18
15 14 13 14 13 15 15 14 14 14 14 11 10 12 13 13 13 13 13 13 13 14 14 15 15 16 16 16 16 16 16 16 16 16 16 16 17 17 17 17 17 17 18 17
17 14 14 17 14 13 13 14 14 16 13 12 12 13 14 14 13 13 13 13 13 13 13 14 15 15 15 15 16 16 16 16 16 16 15 16 16 17 17 18 18 18 17 17
17 15 21 15 13 12 12 12 12 13 14 14 12 12 12 12 12 13 12 12 12 12 12 13 13 14 14 15 16 16 16 15 16 15 15 16 17 17 17 17 17 17 17 16
18 18 15 14 17 16 15 14 11 11 12 15 15 14 15 13 12 12 12 12 12 11 12 12 13 13 14 15 15 15 15 15 14 15 15 16 16 17 16 17 17 17 17 17
17 19 20 19 18 15 13 17 14 12 12 16 15 15 14 14 13 12 12 12 12 12 13 12 13 14 14 15 15 15 15 14 14 14 15 15 15 16 16 17 16 16 16 17
16 17 16 18 18 16 18 18 18 16 15 15 14 13 13 14 14 13 13 14 13 13 13 14 14 15 15 16 15 14 15 15 15 15 14 14 15 17 16 17 16 17 17 17
17 17 19 17 18 16 16 17 16 15 15 15 16 16 16 16 16 16 16 15 15 15 15 15 15 15 16 16 14 16 16 15 15 14 14 15 16 19 18 17 18 19 19 19
15 15 17 17 17 15 15 15 16 15 15 15 16 17 16 16 17 17 16 16 16 16 16 16 16 15 16 16 16 17 16 16 17 17 16 16 17 18 19 19 18 18 18 18
16 16 17 16 14 15 15 15 16 16 15 15 17 17 17 17 17 17 17 17 17 16 17 17 19 17 17 16 17 17 17 18 18 18 19 19 17 17 17 18 18 17 17 16
19 18 16 15 15 14 14 15 16 16 16 16 16 16 16 17 17 16 16 16 16 16 17 17 18 18 19 18 18 18 18 18 19 19 19 19 18 17 17 18 16 19 18 18
16 15 14 14 12 12 13 14 15 16 16 16 16 16 16 16 16 16 16 17 18 18 18 19 19 20 21 20 19 18 19 19 18 18 19 19 19 20 13 12 11 10 9 13
14 13 12 13 11 12 13 14 14 14 15 15 15 15 16 16 16 16 17 18 18 19 19 19 19 21 23 23 21 21 19 18 18 18 19 20 20 20 21 16 10 9 8 8
13 13 15 15 15 13 13 14 14 15 15 14 15 17 17 17 17 17 18 18 18 19 21 21 23 25 25 25 22 21 22 20 20 21 21 21 21 20 20 21 19 18 13 11
14 14 14 14 15 15 15 16 17 16 16 16 17 17 17 17 18 18 20 21 21 22 23 24 25 27 27 26 23 23 21 22 22 21 22 21 20 20 20 19 22 24 23 16
15 16 16 16 15 16 16 17 16 15 16 17 18 18 17 18 19 22 23 24 22 23 27 25 27 29 29 26 25 24 24 22 23 24 24 23 22 23 23 23 23 23 22 21
15 15 16 16 15 15 15 15 15 15 16 17 17 18 20 21 24 25 27 26 25 26 27 27 30 32 31 28 25 24 24 26 24 26 26 26 26 25 24 24 24 24 22 19
20 18 18 18 17 17 16 18 18 19 20 21 20 21 22 23 24 27 29 29 28 29 30 32 32 32 31 29 24 24 24 26 28 29 26 26 26 24 24 25 25 25 24 22
24 23 22 22 23 22 23 23 24 23 23 23 22 24 25 27 27 30 30 29 30 30 32 31 21 28 28 26 24 23 24 26 28 28 26 24 26 27 27 28 27 27 26 24
26 25 25 26 26 27 26 26 26 26 26 26 26 27 29 31 31 29 31 34 35 31 32 30 27 26 26 25 22 24 25 27 26 25 25 26 27 28 27 26 27 28 29 27
29 28 27 27 28 28 28 27 28 28 28 28 28 30 31 33 31 30 29 29 31 28 27 25 26 25 25 26 25 26 25 25 24 24 26 28 29 29 27 30 29 27 26 26
30 30 29 29 29 30 30 30 29 28 29 29 30 30 30 31 30 28 28 25 26 23 25 25 25 24 24 21 23 23 23 23 24 25 25 28 29 28 28 27 27 26 25 24
32 32 30 30 31 32 32 30 30 29 28 28 27 27 25 25 25 25 26 27 26 24 24 24 22 20 19 21 22 24 24 25 26 26 27 28 27 27 27 25 25 25 26 25
34 33 33 32 31 29 29 29 27 27 27 27 27 27 25 26 27 26 25 24 23 24 23 23 22 17 20 25 26 26 26 27 26 28 27 24 28 28 27 25 24 25 24 24
32 32 31 30 28 29 30 29 28 29 29 28 29 29 28 26 28 28 27 26 22 24 24 21 19 19 27 28 27 27 27 28 28 29 28 28 27 26 26 25 25 25 26 25
32 30 31 31 29 27 27 27 28 28 27 28 28 27 28 28 26 26 26 24 24 23 24 23 24 25 27 27 26 25 25 26 24 24 25 25 26 25 22 22 23 23 23 24
27 26 26 26 25 25 25 25 26 28 27 28 28 26 25 25 25 23 22 23 23 23 23 24 23 22 24 23 24 24 24 25 23 23 25 26 25 21 21 21 21 22 21 21